ASP686 CYXU-KBOS

Flight info

Callsign ASP686
Flight time N/A
Altitude 39000
Route WOZEE DCT AEVON DCT HANKK DCT PONCT JFUND2
Aircraft C750/M-SBDE3FGHRWXY/S

Departure

Time 2026-04-30 22:22
Airport London International Airport (CYXU)

Arrival

Time N/A
Airport Boston Logan International Airport (KBOS)
Time Latitude Longitude Altitude Speed Heading
2026-04-30 22:03 43.03569 -81.16429 908 ft 0 kts 333°
2026-04-30 22:16 43.03570 -81.16429 908 ft 0 kts 333°
2026-04-30 22:17 43.03619 -81.16332 908 ft 11 kts 79°
2026-04-30 22:17 43.03639 -81.16196 906 ft 18 kts 78°
2026-04-30 22:17 43.03699 -81.15782 901 ft 23 kts 79°
2026-04-30 22:18 43.03642 -81.15619 901 ft 19 kts 133°
2026-04-30 22:18 43.03455 -81.15391 903 ft 18 kts 139°
2026-04-30 22:19 43.03204 -81.15089 900 ft 30 kts 139°
2026-04-30 22:19 43.03037 -81.14889 898 ft 32 kts 139°
2026-04-30 22:19 43.02724 -81.14513 901 ft 28 kts 138°
2026-04-30 22:20 43.02583 -81.14343 899 ft 27 kts 139°
2026-04-30 22:20 43.02319 -81.14025 896 ft 17 kts 131°
2026-04-30 22:20 43.02338 -81.13930 895 ft 0 kts 49°
2026-04-30 22:21 43.02338 -81.13929 895 ft 0 kts 49°
2026-04-30 22:21 43.02357 -81.13902 894 ft 10 kts 47°
2026-04-30 22:21 43.02447 -81.13868 896 ft 21 kts 322°
2026-04-30 22:21 43.02797 -81.14288 904 ft 117 kts 319°
2026-04-30 22:22 43.03504 -81.15130 1139 ft 149 kts 318°
2026-04-30 22:22 43.04305 -81.16172 1709 ft 166 kts 314°
2026-04-30 22:22 43.05123 -81.17319 2483 ft 170 kts 312°
2026-04-30 22:22 43.05928 -81.18528 3276 ft 173 kts 310°
2026-04-30 22:23 43.06852 -81.19609 3898 ft 188 kts 334°
2026-04-30 22:23 43.08235 -81.19730 3990 ft 217 kts
2026-04-30 22:23 43.09680 -81.18653 3981 ft 256 kts 41°
2026-04-30 22:23 43.10420 -81.16337 4343 ft 280 kts 83°
2026-04-30 22:24 43.10274 -81.13772 5808 ft 266 kts 97°
2026-04-30 22:24 43.10004 -81.11219 6655 ft 281 kts 96°
2026-04-30 22:24 43.09826 -81.08488 7521 ft 287 kts 93°
2026-04-30 22:24 43.09702 -81.05758 8713 ft 288 kts 94°
2026-04-30 22:25 43.09541 -81.03001 9702 ft 296 kts 95°
2026-04-30 22:25 43.09353 -81.00148 10434 ft 308 kts 95°
2026-04-30 22:25 43.09164 -80.97105 10688 ft 335 kts 95°
2026-04-30 22:25 43.08971 -80.93845 10855 ft 360 kts 95°
2026-04-30 22:26 43.08537 -80.86748 11473 ft 394 kts 95°
2026-04-30 22:26 43.08300 -80.82965 11979 ft 401 kts 95°
2026-04-30 22:26 43.08066 -80.79198 13076 ft 388 kts 95°
2026-04-30 22:27 43.07844 -80.75648 14715 ft 360 kts 95°
2026-04-30 22:27 43.07637 -80.72357 16374 ft 334 kts 95°
2026-04-30 22:27 43.07232 -80.65947 17962 ft 348 kts 95°
2026-04-30 22:28 43.06801 -80.59218 19453 ft 357 kts 95°
2026-04-30 22:28 43.06586 -80.55869 20186 ft 361 kts 95°
2026-04-30 22:29 43.05906 -80.45402 22392 ft 375 kts 95°
2026-04-30 22:29 43.05672 -80.41831 23127 ft 379 kts 96°
2026-04-30 22:30 43.04636 -80.26235 23728 ft 452 kts 96°
2026-04-30 22:31 43.03757 -80.13253 25270 ft 462 kts 96°
2026-04-30 22:32 43.02842 -79.99964 26772 ft 474 kts 96°
2026-04-30 22:32 43.02209 -79.90901 27784 ft 483 kts 96°
2026-04-30 22:33 43.01228 -79.77051 29298 ft 496 kts 97°
2026-04-30 22:33 43.00547 -79.67591 30228 ft 504 kts 97°
2026-04-30 22:34 42.99496 -79.53170 31698 ft 509 kts 97°
2026-04-30 22:35 42.98784 -79.43557 32830 ft 508 kts 97°
2026-04-30 22:36 42.97346 -79.24464 35043 ft 506 kts 98°
2026-04-30 22:36 42.96981 -79.19684 35541 ft 506 kts 98°
2026-04-30 22:37 42.95874 -79.05350 37042 ft 505 kts 98°
2026-04-30 22:37 42.95502 -79.00576 37561 ft 505 kts 98°
2026-04-30 22:37 42.94751 -78.91043 38600 ft 505 kts 98°
2026-04-30 22:38 42.93986 -78.81442 38958 ft 518 kts 98°
2026-04-30 22:38 42.93292 -78.71444 38959 ft 539 kts 94°
2026-04-30 22:39 42.93191 -78.66292 38956 ft 548 kts 92°
2026-04-30 22:39 42.92886 -78.50509 38981 ft 564 kts 94°
2026-04-30 22:40 42.92550 -78.34374 38967 ft 567 kts 94°
2026-04-30 22:41 42.91882 -78.07520 38960 ft 567 kts 94°
2026-04-30 22:43 42.91055 -77.75175 38958 ft 569 kts 93°
2026-04-30 22:44 42.90525 -77.53589 38953 ft 570 kts 94°
2026-04-30 22:45 42.89715 -77.23013 38953 ft 569 kts 94°
2026-04-30 22:47 42.88739 -76.90787 38951 ft 567 kts 94°
2026-04-30 22:48 42.88034 -76.69316 38941 ft 566 kts 94°
2026-04-30 22:49 42.86908 -76.37234 38932 ft 565 kts 95°
2026-04-30 22:51 42.85692 -76.05177 38917 ft 563 kts 95°
2026-04-30 22:52 42.85052 -75.89190 38911 ft 563 kts 95°
2026-04-30 22:53 42.84165 -75.67899 38908 ft 562 kts 95°
2026-04-30 22:53 42.83477 -75.52005 38909 ft 562 kts 96°
2026-04-30 22:55 42.82279 -75.25478 38913 ft 561 kts 96°
2026-04-30 22:56 42.81276 -75.04239 38897 ft 560 kts 96°
2026-04-30 22:57 42.79973 -74.77822 38889 ft 560 kts 96°
2026-04-30 22:58 42.78884 -74.56645 38892 ft 559 kts 96°
2026-04-30 22:59 42.77181 -74.24966 38850 ft 558 kts 97°